Location: Long Geng
(2.6167°N, 114.1333°E)
Time: 16:58:00
(UTC+00:00)

CZ-2C R/B - Pass Details

Date: 14 May 2021
Orbit: 390 x 580 km, 35.0° (Epoch: 17 June)

Event Time Altitude Azimuth Distance (km) Brightness Sun altitude
Rises 21:15:59 0° 324° (NW) 2,258 4.3 -14.2°
Reaches altitude 10° 21:18:15 10° 338° (NNW) 1,415 3.4 -13.7°
Maximum altitude 21:20:59 25° 37° (NE) 833 2.9 -13.0°
Drops below altitude 10° 21:23:47 10° 95° (E) 1,463 4.6 -12.4°
Sets 21:26:10 0° 109° (ESE) 2,356 5.4 -11.8°
